Regional Weather Roundup
Issued by NWS

Home | Current Version | Previous Version | Text Only | Print | Product List | Glossary On
Versions: 1 2 3 4 5 6 7 8 9 10 11 12 13 14 15 16 17 18 19 20 21 22 23 24 25 26 27 28 29 30 31 32 33 34 35 36 37 38 39 40 41 42 43 44 45 46 47 48 49 50
000
ASUS43 KMPX 312201
RWRMN
WEATHER ROUNDUP FOR MINNESOTA
NATIONAL WEATHER SERVICE TWIN CITIES/CHANHASSEN MN
500 PM CDT FRI JUL 31 2015


NOTE: "FAIR" INDICATES FEW OR NO CLOUDS BELOW 12,000 FEET WITH NO
SIGNIFICANT WEATHER AND/OR OBSTRUCTIONS TO VISIBILITY. N/A MEANS
CURRENT SKY AND/OR WEATHER CONDITIONS ARE NOT AVAILABLE.

MNZ060>063-068>070-312300-
   Twin Cities Metro

CITY           SKY/WX    TMP DP  RH WIND       PRES   REMARKS
TWIN CITIES    MOSUNNY   82  52  35 NW18G25   30.00F
ST PAUL        SUNNY     82  48  30 NW22G31   29.99F
CRYSTAL        MOSUNNY   83  49  30 NW18G28   29.99F
BLAINE         MOSUNNY   82  48  30 NW21G30   30.00F
LAKEVILLE      SUNNY     79  54  41 W16G24    30.02F
EDEN PRAIRIE   SUNNY     83  53  35 NW14G23   30.01F
SOUTH ST PAUL  MOSUNNY   82  47  29 NW15G24   29.99F
LAKE ELMO      FAIR      81  52  36 NW15      30.01F
$$
MNZ001>005-007-008-013>017-022>024-027-028-312300-
   Northwest Minnesota

CITY           SKY/WX    TMP DP  RH WIND       PRES   REMARKS
BEMIDJI        PTSUNNY   78  47  32 W23G33    29.99F
HALLOCK        SUNNY     79  48  34 N14       29.97F
ROSEAU         SUNNY     75  52  43 NW18G28   29.96S
WARROAD        SUNNY     75  52  43 W15G25    29.95R
THIEF RVR FALL MOSUNNY   77  48  36 NW17      30.00S
CROOKSTON      MOSUNNY   79  48  34 NW12G22   30.00F
FOSSTON        SUNNY     79  48  34 W18       30.02S
DETROIT LAKES  SUNNY     77  52  41 NW14      30.05S
MOORHEAD       SUNNY     79  57  47 W13       30.03S
PARK RAPIDS    SUNNY     78  45  30 NW23G32   30.01F
MAHNOMEN       FAIR      76  52  42 NW12G17   30.02S
$$
MNZ006-009>011-018-025>026-312300-
   North Central Minnesota

CITY           SKY/WX    TMP DP  RH WIND       PRES   REMARKS
BAUDETTE       MOSUNNY   76  49  38 NW21G29   29.93S
FLAG ISLAND    MOSUNNY   73  52  46 W21G28    29.90S
INTL FALLS     MOSUNNY   73  51  46 W17G29    29.90S
WASKISH        MOSUNNY   75  54  46 W16G26    29.96S
BIG FORK       SUNNY     77  48  36 W8G22     29.95S
LONGVILLE      SUNNY     79  50  36 NW8G17    29.99F
GRAND RAPIDS   MOSUNNY   77  46  33 NW18G29   29.97S
CRANE LAKE     PTSUNNY   64  57  77 N3        29.92S
ORR            MOSUNNY   75  48  38 NW15G23   29.90S
COOK           MOSUNNY   73  50  43 W15G22    29.93R
WALKER         MOCLDY    75  50  40 NW12      29.99F
$$
MNZ012-019>021-037-312300-
   Northeast Minnesota

CITY           SKY/WX    TMP DP  RH WIND       PRES   REMARKS
DULUTH         MOSUNNY   78  50  37 NW20G26   29.93S
ELY            PTSUNNY   66  55  68 N5        29.91R
HIBBING        PTSUNNY   75  51  43 NW17G24   29.94S
EVELETH        MOSUNNY   73  48  40 W18G26    29.94S
DULUTH HARBOR  MOSUNNY   81  52  36 W24G31    29.91S
TWO HARBORS    PTSUNNY   79  57  47 N9G18     29.90R
SILVER BAY     MOSUNNY   75  57  53 CALM      29.88S
GRAND MARAIS     N/A     73  54  51 VRB3      29.85S
G MARAIS ARPRT   N/A     64  52  63 W8        29.90S
$$
MNZ029>031-032-039>041-046>048-054>057-064-312300-
   West Central Minnesota

CITY           SKY/WX    TMP DP  RH WIND       PRES   REMARKS
FERGUS FALLS   SUNNY     81  55  41 NW12      30.02F
WHEATON        SUNNY     81  55  41 W8        30.05F
MORRIS         SUNNY     81  57  44 W10       30.04F
ALEXANDRIA     SUNNY     80  54  40 NW15      30.06F
ELBOW LAKE     FAIR      79  55  44 W12G17    30.04F
WADENA         MOSUNNY   77  54  44 NW10G21   30.02F
GLENWOOD       SUNNY     81  54  39 NW14      30.06F
APPLETON       SUNNY     82  52  34 NW7       30.05F
BENSON         SUNNY     82  52  34 N9        30.05F
ORTONVILLE     SUNNY     82  54  36 NW6       30.05F
MADISON        SUNNY     82  55  39 CALM      30.06F
WILLMAR        FAIR      82  55  39 NW10      30.07F
$$
MNZ033>034-036-042>043-049>051-058-059-312300-
   Central Minnesota

CITY           SKY/WX    TMP DP  RH WIND       PRES   REMARKS
ST CLOUD       SUNNY     81  51  35 NW20G30   30.01F
SAUK CENTRE    FAIR      79  55  43 W13       30.04F
PAYNESVILLE    SUNNY     78  51  39 W14       30.05F
AITKIN         SUNNY     79  46  31 W9G17     29.97F
PINE RIVER     SUNNY     79  50  36 NW10G22   30.02F
BRAINERD       SUNNY     80  46  30 W18       30.00F
STAPLES        MOSUNNY   79  48  34 NW14G23   30.02S
LONG PRAIRIE   FAIR      77  52  41 W13G18    30.04F
LITTLE FALLS   SUNNY     79  45  29 W14G24    30.01F
LITCHFIELD     SUNNY     81  54  39 NW12G18   30.05F
BUFFALO        SUNNY     80  50  34 W17       30.03F
MAPLE LAKE     SUNNY     81  55  41 W14G21    30.04S
$$
MNZ037-044-045-052-053-312300-
   East Central Minnesota

CITY           SKY/WX    TMP DP  RH WIND       PRES   REMARKS
PRINCETON      SUNNY     82  50  32 W18       30.00F
MORA           SUNNY     77  45  31 NW15G22   30.00F
CAMBRIDGE      SUNNY     82  57  42 W13G20    29.98F
RUSH CITY      SUNNY     79  49  35 NW9       29.99F
MOOSE LAKE     MOSUNNY   77  46  33 NW16      29.95S
HINCKLEY       FAIR      79  50  36 W13G18    29.97F
CLOQUET        MOSUNNY   79  43  27 W21G28    29.95S
MCGREGOR       MOSUNNY   79  46  31 NW15G23   29.98S
$$
MNZ071>073-080-081-089-090-097-098-312300-
   Southwest Minnesota

CITY           SKY/WX    TMP DP  RH WIND       PRES   REMARKS
MONTEVIDEO     SUNNY     86  55  35 N7        30.08F
GRANITE FALLS  SUNNY     81  56  42 CALM      30.07F
CANBY          SUNNY     82  57  43 NE3       30.07F
MARSHALL       SUNNY     82  55  39 N3        30.08F
REDWOOD FALLS  SUNNY     83  56  39 W9        30.06F
OLIVIA         SUNNY     77  52  41 NW9       30.06S
PIPESTONE      SUNNY     81  54  39 W5        30.10F
WINDOM         SUNNY     81  52  36 CALM      30.09F
WORTHINGTON    SUNNY     81  54  39 N5        30.09F
JACKSON        SUNNY     82  50  32 NW9       30.09F
TRACY          SUNNY     82  55  39 N3        30.08F
SLAYTON        SUNNY     82  51  33 CALM      30.10F
$$
MNZ065>067-074>077-082>085-091>093-312300-
   South Central Minnesota

CITY           SKY/WX    TMP DP  RH WIND       PRES   REMARKS
MANKATO        SUNNY     81  54  39 NW15      30.05F
NEW ULM        SUNNY     81  54  39 NW12      30.05F
ST JAMES       SUNNY     82  59  44 W8        30.07F
FAIRMONT       SUNNY     81  54  39 NW10      30.07F
GLENCOE        SUNNY     81  57  44 NW10      30.03F
FARIBAULT      SUNNY     79  57  47 W13G18    30.04F
OWATONNA       SUNNY     79  52  38 W16       30.05F
WASECA         SUNNY     79  57  47 W8G17     30.06F
ALBERT LEA     SUNNY     81  57  44 W6        30.06F
$$
MNZ078>079-086>088-094>096-312300-
   Southeast Minnesota

CITY           SKY/WX    TMP DP  RH WIND       PRES   REMARKS
ROCHESTER      SUNNY     78  57  48 NW16      30.04F
RED WING       SUNNY     82  46  28 NW14      29.98F
STANTON        SUNNY     81  53  38 NW12G20   30.01S
DODGE CENTER   SUNNY     79  52  38 NW16G24   30.05S
WINONA         SUNNY     81  50  34 NW13G18   29.99F
AUSTIN         SUNNY     81  55  41 NW12G17   30.05F
PRESTON        SUNNY     77  54  44 NW14G22   30.04F
$$
ABBREVIATIONS USED IN REMARKS
   TC - TEMPERATURES IN CELSIUS
  WCI - WIND CHILL INDEX
   HX - HEAT INDEX
  VSB - VISIBILITY
$$



USA.gov is the U.S. government's official web portal to all federal, state and local government web resources and services.